Panama City, FL

10:37 PM CDT on March 27, 2017 (GMT -0500)
Northwest Florida Beaches International

Weather History for KECP - November, 2012

Change the Weather History Date:

Wednesday, November 7, 2012

  Actual Average Record
Temperature  
Mean Temperature 55 °F -  
Max Temperature 65 °F - 85 °F (2015)
Min Temperature 45 °F - 33 °F (2010)
Degree Days  
Heating Degree Days 10    
Cooling Degree Days 0    
Growing Degree Days 5 (Base 50)    
Moisture  
Dew Point 43 °F    
Average Humidity 67    
Maximum Humidity 93    
Minimum Humidity 40    
Precipitation  
Precipitation 0.00 in - 0.59 in (2015)
Month to date precipitation  
Year to date precipitation  
Sea Level Pressure  
Sea Level Pressure 30.02 in    
Wind  
Wind Speed 7 mph (NW)    
Max Wind Speed 20 mph    
Max Gust Speed 26 mph    
Visibility 10 miles    
Events      
T = Trace of Precipitation, MM = Missing Value Source: NWS Daily Summary

Daily Weather History Graph

Daily Weather History Graph

Search for Another Location

Airport or City:

Trip Planner

Search our weather history database for the weather conditions in past years. The results will help you decide how hot, cold, wet, or windy it might be!

Date:

Astronomy

Nov. 07, 2012 Rise Set
Actual Time 7:02 AM EST 5:50 PM EST
Civil Twilight 6:37 AM EST 6:15 PM EST
Nautical Twilight 6:08 AM EST 6:44 PM EST
Astronomical Twilight 5:40 AM EST 7:12 PM EST
Moon 12:24 AM EST (11/7) 1:33 PM EST (11/7)
Length of Visible Light 11h 38m
Length of Day
10h 48m
Last Quarter, 43% of the Moon is Illuminated
Nov 7
Last Quarter
Nov 13
New
Nov 20
First Quarter
Nov 28
Full
Dec 6
Last Quarter

Hourly Weather History & Observations

Time (EST) Temp. Windchill Dew Point Humidity Pressure Visibility Wind Dir Wind Speed Gust Speed Precip Events Conditions
12:53 AM 46.9 °F - 44.1 °F 90% 30.01 in 10.0 mi NW 5.8 mph - N/A   Clear
1:53 AM 48.9 °F - 45.0 °F 86% 30.02 in 10.0 mi WNW 8.1 mph - N/A   Mostly Cloudy
2:53 AM 48.0 °F - 44.1 °F 86% 30.01 in 10.0 mi WNW 5.8 mph - N/A   Clear
3:53 AM 46.0 °F - 43.0 °F 89% 30.02 in 10.0 mi Calm Calm - N/A   Clear
4:53 AM 46.9 °F - 45.0 °F 93% 30.02 in 9.0 mi Calm Calm - N/A   Overcast
5:53 AM 46.9 °F - 44.1 °F 90% 30.03 in 10.0 mi WNW 5.8 mph - N/A   Clear
6:53 AM 46.4 °F 43.5 °F 44.6 °F 93% 30.00 in 10.0 mi WNW 5.8 mph - N/A   Clear
7:53 AM 48.9 °F - 45.0 °F 86% 30.04 in 9.0 mi WNW 4.6 mph - N/A   Clear
8:53 AM 53.1 °F - 46.0 °F 77% 30.05 in 10.0 mi West 9.2 mph - N/A   Clear
9:53 AM 57.0 °F - 45.0 °F 64% 30.06 in 10.0 mi West 10.4 mph - N/A   Clear
10:53 AM 60.1 °F - 42.1 °F 51% 30.05 in 10.0 mi NW 13.8 mph 20.7 mph N/A   Clear
11:53 AM 62.1 °F - 42.1 °F 48% 30.02 in 10.0 mi NW 19.6 mph 26.5 mph N/A   Clear
12:53 PM 64.0 °F - 42.1 °F 45% 29.99 in 10.0 mi WNW 15.0 mph 20.7 mph N/A   Scattered Clouds
1:53 PM 63.0 °F - 39.0 °F 41% 29.97 in 10.0 mi West 15.0 mph 20.7 mph N/A   Partly Cloudy
2:53 PM 61.0 °F - 39.9 °F 46% 29.95 in 10.0 mi NW 10.4 mph - N/A   Partly Cloudy
3:53 PM 64.0 °F - 39.9 °F 41% 29.95 in 10.0 mi WNW 10.4 mph - N/A   Scattered Clouds
4:53 PM 63.0 °F - 41.0 °F 45% 29.98 in 10.0 mi NW 8.1 mph - N/A   Mostly Cloudy
5:53 PM 57.2 °F - 42.8 °F 59% 29.96 in 10.0 mi NW 3.5 mph - N/A   Mostly Cloudy
6:53 PM 52.0 °F - 44.1 °F 74% 30.02 in 10.0 mi Calm Calm - N/A   Partly Cloudy
7:53 PM 48.9 °F - 45.0 °F 86% 30.04 in 10.0 mi NW 3.5 mph - N/A   Mostly Cloudy
8:53 PM 50.0 °F - 45.0 °F 83% 30.07 in 10.0 mi NW 3.5 mph - N/A   Overcast
9:53 PM 51.1 °F - 43.0 °F 74% 30.09 in 10.0 mi NNW 8.1 mph - N/A   Scattered Clouds
10:53 PM 51.1 °F - 41.0 °F 68% 30.12 in 10.0 mi NNW 8.1 mph - N/A   Clear
11:53 PM 48.0 °F - 41.0 °F 77% 30.12 in 10.0 mi NW 5.8 mph - N/A   Mostly Cloudy